AirNav   Everest Fuels
 
 298 users online  

43K Marion Municipal Airport
Marion, Kansas, USA

GOING TO MARION?


FAA INFORMATION EFFECTIVE 18 JUNE 2020

Location

FAA Identifier: 43K
Lat/Long: 38-20-15.4000N 096-59-17.7000W
38-20.256667N 096-59.295000W
38.3376111,-96.9882500
(estimated)
Elevation: 1390 ft. / 424 m (estimated)
Variation: 07E (1985)
From city: 2 miles SE of MARION, KS
Time zone: UTC -5 (UTC -6 during Standard Time)
Zip code: 66861

Airport Operations

Airport use: Open to the public
Activation date: 12/1945
Control tower: no
ARTCC: KANSAS CITY CENTER
FSS: WICHITA FLIGHT SERVICE STATION
NOTAMs facility: ICT (NOTAM-D service available)
Attendance: UNATNDD
PHONE AVBL 24 HRS.
Wind indicator: yes
Segmented circle: no
Beacon: white-green (lighted land airport)
Operates sunset to sunrise.

Airport Communications

CTAF: 122.9

Nearby radio navigation aids

VOR radial/distance  VOR name  Freq  Var
FRIr183/(38.4)FORT RILEY VOR109.4006E

 
NDB name  Hdg/Dist  Freq  Var  ID
NEWTON033/21.228106EEWK . .-- -.-
HERINGTON195/22.940706EHRU .... .-. ..-

Airport Services

Fuel available: 100LL MOGAS
Parking: hangars and tiedowns
Airframe service: NONE
Powerplant service: NONE
Bottled oxygen: NONE
Bulk oxygen: NONE

Runway Information

Runway 17/35

Dimensions: 2573 x 40 ft. / 784 x 12 m
Surface: asphalt, in good condition
Runway edge lights: low intensity
Runway edge markings: RWY 35 ALIGNMENT NUMBERS FADED.
RUNWAY 17  RUNWAY 35
Latitude: 38-20.455545N38-20.031528N
Longitude: 096-59.227317W096-59.227317W
Elevation: 1382.0 ft.1378.0 ft.
Traffic pattern: leftleft
Runway heading: 173 magnetic, 180 true353 magnetic, 000 true
Markings: numbers only, in good conditionnumbers only, in good condition

Runway 3/21

Dimensions: 2745 x 95 ft. / 837 x 29 m
Surface: turf, in good condition
RY 03/21 IS SLIGHTLY ROUGH.
Runway edge markings: 03/21 THLDS & EDGES MKD WITH YELLOW PAINTED TIRES.
RUNWAY 3  RUNWAY 21
Traffic pattern: leftleft
Obstructions: 4 ft. fence
THE PROXIMITY OF THE FENCE TO THE RWY ESTABLISHES THE CONTROLLING OBSTRUCTION. THE 35' TO 40' TREES DIRECTLY BEHIND WOULD BE MORE OF A CONCERN FOR APPROACHING AIRCRAFT.
22 ft. pline, 735 ft. from runway, 170 ft. left of centerline, 33:1 slope to clear

Runway 13/31

Dimensions: 2722 x 50 ft. / 830 x 15 m
Surface: turf, in good condition
Runway edge markings: 13/31 THLD & EDGES MKD WITH YELLOW PAINTED TIRES.
RUNWAY 13  RUNWAY 31
Traffic pattern: leftleft
Obstructions: 4 ft. fence, 15 ft. from runwaynone

Runway 18/36

Dimensions: 2310 x 67 ft. / 704 x 20 m
Surface: turf, in good condition
Runway edge markings: RY 18/36 THLD DELINEATED WITH YELLOW PAINTED TIRES.
RUNWAY 18  RUNWAY 36
Latitude: 38-20.459450N38-20.079648N
Longitude: 096-59.352258W096-59.385003W
Elevation: 1380.0 ft.1378.0 ft.
Traffic pattern: leftleft
Runway heading: 177 magnetic, 184 true357 magnetic, 004 true
Obstructions: 4 ft. fence, 9 ft. from runway, 30 ft. left and right of centerline, 2:1 slope to clearnone

Airport Ownership and Management from official FAA records

Ownership: Publicly-owned
Owner: CITY OF MARION
208 EAST SANTA FE
MARION, KS 66861
Phone 620-382-3703
Manager: ROGER HOLTER
208 EAST SANTA FE
MARION, KS 66861
Phone 620-382-3703
MR.MAYFIELD IS CITY MGR. OF MARION KS.

Airport Operational Statistics

Aircraft based on the field: 17
Single engine airplanes: 16
Ultralights: 1
    
Aircraft operations: avg 25/day *
66% local general aviation
33% transient general aviation
<1% military
* for 12-month period ending 28 August 2019

Additional Remarks

A58-35 RWY 35 ROAD ABANDONED & IS GATED FM TRAFFIC. +4 FT FENCE; 70 FT FRM END OF RWY; BOTH SIDES OF RWY.
A58-17 +4' FENCE 5' FROM RWY END 30' L & R OF CNTRLEN; LOWERED AT RWY.
FOR CD CTC KANSAS CITY ARTCC AT 913-254-8508.

Instrument Procedures

There are no published instrument procedures at 43K.

Some nearby airports with instrument procedures:

KEWK - Newton City/County Airport (22 nm SW)
KHRU - Herington Regional Airport (23 nm N)
47K - Moundridge Municipal Airport (25 nm W)
KMPR - Mc Pherson Airport (33 nm W)
1K1 - Lloyd Stearman Field Airport (34 nm S)
 
Loc | Ops | Rwys | IFR | FBO | Links
Com | Nav | Svcs | Stats | Notes
Area around 43K (Marion Municipal Airport)
 
Road maps at: MapQuest Bing Google
 
Aerial photo
WARNING: Photo may not be current or correct
Aerial photo of 43K (Marion Municipal Airport)
Photo by Paul Hodson
Photo taken 21-Jan-2006
taken from a C182 from the northwest

Do you have a better or more recent aerial photo of Marion Municipal Airport that you would like to share? If so, please send us your photo.

 
Sectional chart

 
Airport distance calculator
Flying to Marion Municipal Airport? Find the distance to fly.

From to 43K

Sunrise and sunset
Times for 07-Jul-2020
 Local
(UTC-5)
 Zulu
(UTC)
Morning civil twilight05:4210:42
Sunrise06:1311:13
Sunset20:5301:53
Evening civil twilight21:2402:24

Current date and time
Zulu (UTC)  07-Jul-2020 09:42:49
Local (UTC-5)  07-Jul-2020 04:42:49
 
METAR
KEWK 
22nm SW 
070856Z AUTO 12005KT 10SM CLR 22/20 A2999 RMK AO2 SLP139 T02170200 58015
K1K1 
34nm S 
070915Z AUTO 18011KT 10SM CLR 21/20 A2997 RMK AO2 T02080195
KEQA 
35nm S 
070915Z AUTO 15006KT 10SM CLR 22/20 A2997 RMK AO2
KAAO 
37nm S 
070854Z AUTO 15005KT 10SM CLR 21/20 A2997 RMK AO2 SLP138 T02060200 58014
KEMP 
37nm E 
070853Z AUTO 17006KT 8SM CLR 22/21 A2997 RMK AO2 SLP136 T02170211 57016
KBEC 
40nm S 
070915Z AUTO 14004KT 7SM CLR 22/20 A2997 RMK AO2 T02160195
K3AU 
40nm S 
070915Z AUTO 14004KT 10SM CLR 20/20 A2997 RMK AO2
KSLN 
41nm NW 
070853Z AUTO 18003KT 9SM CLR 21/19 A2997 RMK AO2 SLP134 T02110194 56021
KFRI 
43nm N 
070911Z AUTO 00000KT 2 1/2SM BR CLR 22/21 A2997 RMK AO2 VIS 2 1/2V4 SLP137
K13K 
44nm SE 
070915Z AUTO 19003KT 5SM BR CLR 21/21 A2998 RMK AO2 T02070205
TAF
KSLN 
41nm NW 
070520Z 0706/0806 16005KT P6SM SKC FM071500 19007KT P6SM SCT050
KFRI 
43nm N 
070500Z 0705/0811 VRB06KT 9999 SKC QNH2999INS BECMG 0714/0715 18006KT 9999 FEW050 QNH2999INS TX33/0721Z TN22/0708Z
KHUT 
44nm W 
070520Z 0706/0806 14004KT P6SM SKC FM071500 18005KT P6SM SCT050
KICT 
46nm SW 
070520Z 0706/0806 14005KT P6SM SKC FM071500 18006KT P6SM SCT050
KMHK 
50nm N 
070520Z 0706/0806 19002KT P6SM FEW250 TEMPO 0711/0713 3SM BR FM071500 18007KT P6SM SCT050
NOTAMs
Click for the latest NOTAMs
NOTAMs are issued by the DoD/FAA and will open in a separate window not controlled by AirNav.

 

 
 

Would you like to see your business listed on this page?

 If your business provides an interesting product or service to pilots, flight crews, aircraft, or users of the Marion Municipal Airport, you should consider listing it here.  To start the listing process, click on the button below
 
Add a business
 

Other Pages about Marion Municipal Airport

Update a link
 
Copyright © AirNav, LLC. All rights reserved. Privacy Policy  Contact